Probability
20 19 17 17 22 26 27 30 33 35 36 34 30 25 21 19 16 14 13 12 9 7 3 1 0 0 0 0 0 0 0 0 0 0 0 0 0 0 0 0 0 0 0
22 21 20 21 25 27 25 26 29 32 34 33 29 25 21 19 19 18 16 12 8 6 4 2 1 0 0 0 0 0 0 0 0 0 0 0 0 0 0 0 0 0 0
23 23 23 25 26 25 23 22 25 29 32 31 28 24 20 19 20 21 18 12 8 6 5 4 2 1 0 0 0 0 0 0 0 0 0 0 0 0 0 0 0 0 0
23 23 23 22 22 21 20 21 25 29 31 30 25 19 17 18 21 23 19 13 9 7 6 5 4 2 1 1 1 1 0 0 0 0 0 0 0 0 0 0 0 0 0
20 19 18 17 17 17 18 20 23 26 29 27 22 17 15 17 20 21 18 13 10 8 6 6 5 3 2 2 2 2 1 0 0 0 0 0 0 0 0 0 0 0 0
14 14 14 15 15 15 16 18 20 22 25 23 19 16 15 16 16 14 13 12 11 9 7 5 4 3 3 3 3 3 1 0 0 0 0 0 0 0 0 0 0 0 0
10 10 12 15 15 15 15 16 18 20 21 19 16 14 13 13 12 10 9 10 10 10 8 5 3 3 3 3 3 3 2 1 0 0 0 0 0 0 0 0 0 0 0
10 9 11 15 16 15 14 14 16 18 19 18 17 14 11 10 10 9 8 9 10 9 8 6 4 3 3 3 3 3 3 2 0 0 0 0 0 0 0 0 0 0 0
8 8 9 12 14 15 14 13 13 14 16 17 16 14 10 8 8 8 8 9 9 9 7 6 4 3 3 3 3 3 2 1 0 0 0 0 0 0 0 0 0 0 0
6 7 8 10 12 14 14 11 9 9 10 12 11 9 9 7 7 8 8 9 10 9 7 6 4 4 3 3 3 2 1 0 0 0 0 0 0 0 0 0 0 0 0
6 6 7 9 11 13 13 10 8 6 7 8 8 7 8 8 7 7 8 8 10 9 8 6 5 5 4 2 1 1 0 0 0 0 0 0 0 0 0 0 0 0 0
5 6 7 9 11 12 11 10 7 6 7 7 7 7 8 8 8 8 8 7 7 8 7 6 6 4 3 1 0 0 0 0 0 0 0 0 0 0 0 0 0 0 0
4 5 7 9 10 11 10 8 6 6 7 7 7 7 8 9 9 9 9 7 5 5 6 6 5 2 1 0 0 0 0 0 0 0 0 0 0 0 0 0 0 0 0
5 6 8 10 10 11 9 8 7 7 7 7 6 6 7 9 10 10 9 7 4 3 4 5 3 1 0 0 0 0 0 0 0 0 0 0 0 0 0 0 0 0 0
6 8 9 10 11 11 10 9 9 9 8 7 6 7 10 12 13 12 10 7 4 3 4 4 2 0 0 0 0 0 0 0 0 0 0 0 0 0 0 0 0 0 1
6 9 11 12 13 14 13 12 10 9 8 7 7 10 14 17 16 13 10 7 5 4 4 4 2 1 0 0 0 0 0 0 0 0 0 0 0 0 0 0 0 0 1
5 9 13 13 13 14 15 14 12 10 8 7 8 11 15 17 15 12 8 7 6 6 5 4 3 1 0 0 0 0 0 0 0 0 0 0 0 0 0 0 0 0 1
6 9 12 12 11 11 13 13 12 10 7 7 7 9 12 14 13 11 9 8 8 8 7 5 2 1 0 0 0 0 0 0 0 0 0 1 0 0 0 0 0 1 2
7 9 10 8 7 9 11 12 11 9 8 7 8 8 11 12 13 13 13 12 11 9 8 5 3 2 1 0 0 0 0 0 0 0 0 0 0 0 0 0 1 3 5
7 9 10 9 9 12 15 15 14 12 11 9 9 11 13 15 15 17 18 16 13 11 8 6 4 3 2 1 0 0 0 0 0 0 0 0 0 0 0 0 2 5 7
8 8 10 11 14 18 22 22 20 18 17 15 14 16 18 18 18 19 20 19 16 13 10 8 6 4 3 1 0 0 0 0 1 1 0 0 0 0 0 0 1 3 4
14 13 12 13 15 20 25 26 26 26 27 25 23 23 24 23 21 21 23 22 19 14 11 9 8 6 4 2 0 0 0 0 1 1 0 0 0 0 0 0 0 1 1
22 20 16 12 12 16 21 24 29 35 39 38 34 32 32 30 27 25 24 22 19 14 11 11 10 9 8 5 2 1 0 0 1 1 0 0 0 0 0 0 0 0 0
25 23 19 12 10 13 16 20 27 37 43 43 40 37 36 35 33 28 24 22 20 16 15 16 15 12 11 8 5 3 3 3 2 2 2 2 2 2 2 2 2 2 2
23 23 19 15 13 15 18 20 25 34 42 43 40 36 34 35 33 29 24 20 18 15 14 16 14 11 9 7 4 4 4 5 4 3 3 5 5 4 4 4 4 4 3
21 21 19 17 16 18 21 22 26 34 43 45 40 34 31 31 31 28 22 15 11 9 8 9 9 7 5 3 2 2 3 3 3 2 3 5 5 5 4 4 4 4 3
Wind_Speed
13 13 13 13 13 13 14 14 13 13 11 8 8 8 7 7 6 6 7 6 5 5 3 3 4 3 2 2 3 3 4 2 1 2 2 3 2 2 2 1 0 2 2
13 13 13 14 14 15 14 14 14 13 12 9 7 6 7 6 6 6 6 6 6 5 5 3 3 3 3 3 3 2 2 2 2 2 2 3 4 3 3 2 2 1 2
14 14 14 15 15 16 16 14 14 14 13 11 8 7 6 6 6 7 6 6 6 5 3 4 3 3 4 4 3 4 4 2 3 2 3 2 1 4 4 2 2 2 1
14 14 15 15 15 15 15 14 14 13 13 12 11 12 9 8 8 7 6 7 6 6 5 5 4 3 3 3 4 3 3 3 3 3 1 3 4 2 3 4 4 3 2
14 14 15 15 15 15 14 14 14 13 13 12 12 11 9 7 7 7 8 7 6 6 6 5 4 4 3 3 1 2 3 3 3 2 3 2 2 4 3 3 4 4 3
13 14 14 14 13 13 14 14 14 13 13 13 12 11 10 9 10 9 9 7 6 6 6 6 5 4 3 4 3 3 3 1 1 1 2 2 2 3 2 2 3 3 3
13 13 14 15 14 14 14 14 15 14 14 14 13 12 11 11 11 10 9 8 7 6 7 6 5 4 4 4 3 3 2 2 2 2 2 1 1 2 2 3 2 2 3
13 14 15 15 15 16 15 15 15 14 14 13 12 11 12 10 9 10 9 8 7 7 8 7 6 5 5 5 4 4 4 3 2 2 0 1 1 1 2 2 2 3 3
14 15 16 16 16 16 16 16 15 14 14 13 12 11 12 11 10 10 9 8 6 7 9 8 7 6 6 5 5 3 4 4 4 4 4 2 2 1 1 2 3 4 4
13 15 16 16 16 16 16 16 16 15 15 14 13 11 12 11 10 10 10 8 8 7 9 8 8 7 7 6 5 5 5 4 3 1 1 1 2 1 1 1 2 3 4
13 14 15 16 16 16 16 16 16 15 14 14 13 13 13 12 12 10 10 10 9 9 10 9 9 8 8 7 6 5 6 5 4 4 4 3 1 2 2 2 2 2 3
11 13 15 16 16 16 16 15 15 15 15 14 13 13 13 13 13 12 11 11 11 10 10 10 9 9 8 7 7 7 6 6 6 5 5 5 4 3 3 2 2 2 2
10 12 14 15 16 16 15 15 15 15 14 14 14 14 13 14 13 13 12 12 11 11 11 10 10 9 9 8 8 7 7 6 6 6 6 5 5 5 3 3 3 3 3
9 11 13 14 15 15 15 15 15 15 14 14 14 14 14 14 13 13 13 12 12 12 11 11 10 10 9 9 8 8 7 7 6 6 6 6 6 6 5 4 4 4 4
10 11 13 13 14 15 15 15 15 14 14 14 14 14 14 14 13 13 13 13 12 12 11 11 10 10 9 9 9 9 8 8 7 7 7 7 4 2 4 5 4 5 5
9 10 12 13 14 15 15 15 15 14 14 15 15 14 14 14 13 13 13 12 12 11 11 11 11 11 9 8 7 7 8 8 8 8 8 7 8 8 8 8 7 7 8
8 9 11 12 13 14 15 15 15 15 14 15 15 14 14 14 14 14 13 13 12 12 11 11 11 11 9 11 11 9 8 8 8 8 8 8 7 8 9 10 12 12 12
7 9 9 11 12 13 14 14 15 15 15 15 15 15 15 14 14 14 13 13 12 11 11 11 11 10 10 13 12 11 11 10 9 9 9 9 8 8 7 8 9 9 10
5 7 8 9 10 12 14 15 15 16 15 15 15 15 15 15 14 15 14 13 12 12 11 11 11 11 10 14 13 12 10 10 11 10 10 10 10 6 6 9 9 10 9
3 4 6 8 9 10 12 15 15 16 16 16 15 15 15 15 15 14 14 12 11 11 11 11 11 12 11 13 15 14 10 10 9 9 10 10 11 6 9 10 10 10 9
2 3 5 7 8 9 12 14 14 15 14 14 14 14 14 14 14 13 12 12 11 11 11 11 11 11 11 13 16 16 11 10 9 9 9 8 13 11 10 11 10 9 8
0 2 4 5 6 8 10 11 12 12 12 13 13 13 14 13 12 13 12 12 12 11 11 10 10 9 10 11 14 17 15 10 9 8 7 4 9 11 11 10 9 7 7
2 0 2 4 5 7 9 10 10 10 11 12 13 12 13 12 11 12 13 12 11 10 10 10 10 9 9 9 12 15 15 13 9 7 5 2 5 7 10 13 12 10 9
2 1 2 3 4 5 7 7 8 8 10 11 11 11 11 11 11 9 10 10 10 10 9 9 9 8 8 8 9 10 10 11 11 10 8 8 9 10 10 8 10 10 9
2 1 1 2 3 4 5 6 7 9 10 10 10 10 10 9 9 9 7 9 8 7 7 7 7 7 7 6 5 6 6 7 6 6 7 8 8 8 8 8 8 7 7
2 1 1 2 3 3 4 4 6 8 9 8 8 8 8 8 8 8 6 2 1 4 4 1 2 3 3 7 8 6 4 3 4 5 7 7 8 8 7 7 7 7 7
Wind_Direction
185 182 183 183 180 180 182 182 179 177 176 172 174 176 178 178 175 173 166 173 173 173 193 188 166 208 188 189 182 196 180 200 202 216 180 155 154 128 140 137 190 151 147
184 182 183 184 185 183 183 183 183 179 180 176 173 175 171 173 168 164 164 176 176 181 187 188 189 183 169 175 182 207 228 180 197 252 219 183 159 150 113 137 149 137 146
188 184 186 188 188 187 184 181 179 178 179 172 167 163 161 167 164 167 169 174 175 179 180 176 190 183 200 170 189 199 218 205 185 257 283 268 189 142 130 108 97 94 99
191 186 188 188 189 185 181 177 176 176 175 175 176 176 180 179 173 172 162 164 173 172 174 176 175 194 193 163 198 180 211 225 206 177 258 329 358 281 157 158 133 117 97
191 188 190 188 185 180 176 174 176 178 177 182 181 184 185 177 167 166 156 166 163 172 176 172 172 179 184 164 174 158 228 215 236 202 188 181 204 262 258 160 155 152 133
188 187 185 181 178 177 175 173 174 177 179 183 185 189 185 176 169 172 166 173 167 171 173 170 169 177 165 161 168 176 179 232 288 273 229 223 229 237 244 210 198 175 137
184 182 180 178 175 177 175 173 173 177 181 184 187 189 187 181 180 181 178 179 172 171 169 169 168 165 154 155 157 165 151 163 165 218 230 253 280 287 272 264 225 204 167
187 185 183 179 177 178 176 175 175 179 180 183 186 187 186 188 186 189 182 185 183 169 161 167 167 161 161 159 156 171 158 150 167 171 117 232 206 257 260 271 260 232 208
189 187 183 180 179 179 178 178 177 181 182 183 182 184 187 192 185 180 187 182 177 163 164 167 166 164 163 158 173 153 159 158 180 166 172 215 143 231 256 268 278 280 263
187 185 182 182 181 180 179 181 181 183 183 183 184 184 188 189 185 186 185 178 175 167 168 172 170 168 167 170 184 167 156 166 165 169 130 230 194 167 216 236 260 282 290
184 181 180 180 180 180 179 181 183 183 184 185 187 186 186 186 186 186 184 180 179 176 177 177 175 174 175 177 186 190 166 184 173 181 179 198 245 228 214 214 234 250 271
182 180 178 177 179 182 181 182 185 186 186 185 186 188 185 185 187 186 186 184 182 184 183 181 180 181 180 181 189 194 184 190 189 192 193 200 193 206 250 239 240 247 285
181 179 179 180 182 183 183 184 187 187 186 185 187 187 187 188 189 185 184 185 185 187 185 185 186 187 184 186 193 197 195 199 201 198 201 205 204 213 218 235 241 235 228
181 184 183 184 184 185 185 185 187 187 186 186 189 187 189 188 187 185 183 186 187 188 186 188 191 191 191 190 191 195 199 203 206 205 209 212 211 215 218 223 235 251 258
185 186 188 187 187 187 187 187 187 186 186 187 189 188 187 185 186 184 184 186 188 189 186 189 192 195 196 197 192 196 199 203 208 209 214 218 223 258 256 264 245 241 251
193 190 190 190 191 190 189 188 187 184 185 189 189 186 185 183 184 183 183 183 187 190 186 192 196 199 203 165 175 213 207 206 213 215 219 217 209 217 229 256 270 278 266
198 196 194 193 193 193 192 190 187 185 188 191 190 185 185 184 184 184 183 185 186 188 190 194 199 204 193 158 178 207 230 221 218 220 223 233 214 206 227 219 225 240 245
208 199 198 196 196 193 189 190 186 186 190 193 191 186 186 186 184 185 185 186 188 190 192 196 200 205 193 172 184 193 223 233 226 226 227 234 238 225 235 243 239 242 233
231 209 201 197 194 191 188 187 187 188 190 191 189 186 186 187 186 188 188 188 189 191 194 197 201 206 197 179 184 193 218 225 229 230 228 230 234 212 208 245 254 258 259
242 212 200 193 189 190 187 187 189 190 193 192 190 188 188 189 190 190 189 188 190 194 198 199 202 207 208 183 185 197 224 225 225 221 226 227 237 214 197 236 251 258 263
257 199 190 186 185 183 184 190 192 194 193 190 188 188 188 191 191 190 189 188 190 195 204 202 204 208 212 187 187 197 224 230 227 227 223 217 196 215 215 233 252 262 277
2 177 178 175 176 178 182 189 195 194 191 189 188 188 189 191 188 188 189 191 192 193 200 205 210 209 208 206 194 196 215 241 241 243 245 226 173 199 216 227 243 253 262
32 153 175 170 171 179 187 192 192 189 189 189 190 190 190 193 190 187 188 190 193 201 200 201 208 210 203 194 190 194 206 221 238 250 266 273 194 213 227 231 233 235 241
17 31 168 174 175 182 191 192 183 183 186 188 189 188 189 190 190 192 193 195 196 204 206 205 208 208 201 202 188 191 198 207 225 242 241 227 228 237 256 249 222 229 243
357 16 154 175 175 174 179 184 181 181 185 187 186 187 187 187 185 190 195 202 202 205 208 209 206 205 206 192 176 192 200 207 211 225 236 239 237 234 237 240 242 243 238
23 45 123 149 158 160 166 175 174 176 178 178 181 183 182 178 182 177 172 125 162 141 164 170 201 182 145 138 151 166 174 172 171 217 241 247 250 253 255 255 253 249 250